Weather History for Flint, MI

Change the Weather History Date:

Monday, June 17, 2013

  Actual Average Record
Temperature  
Mean Temperature 72 °F 67 °F  
Max Temperature 86 °F 79 °F 97 °F (1921)
Min Temperature 58 °F 56 °F 41 °F (1958)
Degree Days  
Heating Degree Days 0 2  
Month to date heating degree days 34 52  
Since 1 June heating degree days 34 52  
Since 1 July heating degree days 6455 6939  
Cooling Degree Days 7 4  
Month to date cooling degree days 52 47  
Year to date cooling degree days 131 79  
Since 1 June cooling degree days 52 47  
Growing Degree Days 22 (Base 50)    
Moisture  
Dew Point 58 °F    
Average Humidity 64    
Maximum Humidity 87    
Minimum Humidity 40    
Precipitation  
Precipitation 0.15 in 0.10 in 3.46 in (2009)
Month to date precipitation 2.37 1.76  
Year to date precipitation 19.13 12.75  
Snow  
Snow 0.00 in 0.00 in 0.00 in ()
Month to date snowfall 0.0 0.0  
Since 1 June snowfall 0.0 0.0  
Since 1 July snowfall 43.8 47.4  
Snow Depth 0.00 in    
Sea Level Pressure  
Sea Level Pressure 29.90 in    
Wind  
Wind Speed 6 mph (NE)    
Max Wind Speed 24 mph    
Max Gust Speed 39 mph    
Visibility 10 miles    
Events Rain , Thunderstorm    
T = Trace of Precipitation, MM = Missing Value Source: NWS Daily Summary

Daily Weather History Graph

Daily Weather History Graph

Search for Another Location

Airport:

Trip Planner

Search our weather history database for the weather conditions in past years. The results will help you decide how hot, cold, wet, or windy it might be!

Date:

Astronomy

Jun. 17, 2013 Rise Set
Actual Time 5:55 AM EDT 9:16 PM EDT
Civil Twilight 5:20 AM EDT 9:51 PM EDT
Nautical Twilight 4:34 AM EDT 10:37 PM EDT
Astronomical Twilight 3:37 AM EDT 11:34 PM EDT
Moon 2:46 PM EDT (6/17) 1:39 AM EDT (6/17)
Length of Visible Light 16h 31m
Length of Day
15h 21m
First Quarter, 60% of the Moon is Illuminated
Jun 17
First Quarter
Jun 23
Full
Jun 30
Last Quarter
Jul 8
New
Jul 15
First Quarter

Hourly Weather History & Observations

Time (EDT) Temp. Heat Index Dew Point Humidity Pressure Visibility Wind Dir Wind Speed Gust Speed Precip Events Conditions
12:53 AM 66.0 °F - 55.9 °F 70% 29.88 in 10.0 mi WSW 5.8 mph - N/A   Clear
1:53 AM 64.0 °F - 55.9 °F 75% 29.89 in 10.0 mi Calm Calm - N/A   Clear
2:53 AM 64.0 °F - 55.9 °F 75% 29.88 in 10.0 mi WSW 5.8 mph - N/A   Clear
3:53 AM 62.1 °F - 55.0 °F 78% 29.88 in 10.0 mi Calm Calm - N/A   Clear
4:53 AM 61.0 °F - 55.9 °F 83% 29.89 in 10.0 mi West 4.6 mph - N/A   Clear
5:53 AM 59.0 °F - 55.0 °F 87% 29.90 in 10.0 mi SSW 5.8 mph - N/A   Clear
6:53 AM 61.0 °F - 55.9 °F 83% 29.90 in 10.0 mi SSW 6.9 mph - N/A   Scattered Clouds
7:53 AM 64.9 °F - 57.0 °F 75% 29.90 in 10.0 mi Calm Calm - N/A   Clear
8:53 AM 70.0 °F - 57.0 °F 63% 29.93 in 10.0 mi WNW 4.6 mph - N/A   Clear
9:53 AM 73.9 °F - 54.0 °F 50% 29.93 in 10.0 mi NW 3.5 mph - N/A   Clear
10:53 AM 77.0 °F - 55.0 °F 47% 29.93 in 10.0 mi WNW 3.5 mph - N/A   Clear
11:53 AM 77.0 °F - 55.0 °F 47% 29.94 in 10.0 mi Variable 3.5 mph - N/A   Clear
12:53 PM 80.1 °F 80.1 °F 55.0 °F 42% 29.91 in 10.0 mi Calm Calm - N/A   Clear
1:53 PM 81.0 °F 81.0 °F 57.0 °F 44% 29.91 in 10.0 mi Variable 4.6 mph - N/A   Clear
2:53 PM 82.9 °F 82.1 °F 55.9 °F 39% 29.88 in 10.0 mi West 6.9 mph - N/A   Clear
3:45 PM 86.0 °F 86.1 °F 60.8 °F 43% 29.89 in 10.0 mi WNW 16.1 mph - N/A Thunderstorm Partly Cloudy
3:53 PM 84.9 °F 84.8 °F 60.1 °F 43% 29.88 in 10.0 mi West 10.4 mph - N/A Thunderstorm Mostly Cloudy
3:56 PM 84.2 °F 83.8 °F 59.0 °F 42% 29.89 in 10.0 mi WNW 8.1 mph 17.3 mph N/A Thunderstorm Mostly Cloudy
4:14 PM 75.2 °F - 57.2 °F 53% 29.90 in 10.0 mi NNE 18.4 mph 24.2 mph N/A   Overcast
4:53 PM 78.1 °F - 57.9 °F 50% 29.87 in 10.0 mi ENE 10.4 mph - N/A   Clear
5:21 PM 73.4 °F - 57.2 °F 57% 29.88 in 10.0 mi East 8.1 mph - 0.00 in Rain , Thunderstorm Light Thunderstorms and Rain
5:53 PM 75.0 °F - 62.1 °F 64% 29.86 in 10.0 mi ESE 9.2 mph - 0.08 in Thunderstorm Thunderstorm
6:04 PM 75.2 °F - 62.6 °F 65% 29.86 in 10.0 mi ESE 6.9 mph - N/A   Clear
6:53 PM 75.9 °F - 63.0 °F 64% 29.82 in 10.0 mi South 9.2 mph - N/A Thunderstorm Clear
7:23 PM 71.6 °F - 60.8 °F 69% 29.89 in 10.0 mi NE 16.1 mph 32.2 mph N/A Thunderstorm Thunderstorm
7:46 PM 68.0 °F - 59.0 °F 73% 29.89 in 10.0 mi East 13.8 mph 28.8 mph N/A   Partly Cloudy
7:53 PM 69.1 °F - 59.0 °F 70% 29.89 in 10.0 mi East 10.4 mph 28.8 mph N/A   Clear
8:53 PM 66.0 °F - 57.9 °F 75% 29.91 in 10.0 mi East 9.2 mph - N/A   Clear
9:53 PM 66.0 °F - 57.9 °F 75% 29.92 in 10.0 mi East 6.9 mph - N/A   Partly Cloudy
10:53 PM 63.0 °F - 59.0 °F 87% 29.92 in 8.0 mi ENE 12.7 mph - 0.05 in Rain Light Rain
11:12 PM 62.6 °F - 59.0 °F 88% 29.95 in 10.0 mi NE 9.2 mph - 0.00 in   Mostly Cloudy
11:28 PM 62.6 °F - 57.2 °F 82% 29.95 in 10.0 mi East 8.1 mph - 0.00 in   Mostly Cloudy
11:53 PM 62.1 °F - 57.9 °F 86% 29.97 in 10.0 mi North 4.6 mph - 0.00 in   Mostly Cloudy